Regional Weather Roundup
Issued by NWS

Home | Current Version | Previous Version | Text Only | Print | Product List | Glossary Off
Versions: 1 2 3 4 5 6 7 8 9 10 11 12 13 14 15 16 17 18 19 20 21 22 23 24 25 26 27 28 29 30 31 32 33 34 35 36 37 38 39 40 41 42 43 44 45 46 47 48 49 50

443
ASUS45 KCYS 181510
RWRWY

WYOMING REGIONAL WEATHER ROUNDUP
NATIONAL WEATHER SERVICE CHEYENNE WY
800 AM MST SUN FEB 18 2018

NOTE:  "FAIR" INDICATES FEW OR NO CLOUDS BELOW 12,000 FEET
WITH NO SIGNIFICANT WEATHER AND/OR OBSTRUCTIONS TO VISIBILITY.

WYZ001-181600-
YELLOWSTONE NATIONAL PARK

CITY           SKY/WX    TMP DP  RH WIND       PRES   REMARKS
LK YELLOWSTONE   N/A     23  19  85 W8        29.41R WCI  14
W YELLOWSTONE  NOT AVBL

$$
WYZ002>013-054>058-071-098>099-181600-
NORTHERN WYOMING

CITY           SKY/WX    TMP DP  RH WIND       PRES   REMARKS
JACKSON        LGT SNOW  29  27  92 S18       29.46R FOG     WCI  16
CODY           SNOW       9   5  85 N20G25    29.59R VSB 1/2 WCI -11
GREYBULL       HVY SNOW  14  12  92 NW32G39   29.53R VSB 1/4 WCI  -7
WORLAND        LGT SNOW  21  18  88 NW17      29.54R VSB 3/4 WCI   7
SHERIDAN       SNOW      14  11  87 NW20G29   29.68R VSB 1/4 WCI  -3
BUFFALO        SNOW      13   9  84 N23G30    29.56R VSB 1/4 WCI  -6
GILLETTE       SNOW      19  16  88 N21       29.56R VSB 1/2 WCI   3
HULETT         LGT SNOW  23  19  86 MISG      29.58R
NEWCASTLE      PTSUNNY   32  25  74 NW8       29.52R WCI  25

$$
WYZ014>020-022>026-101>103-181600-
CENTRAL WYOMING

CITY           SKY/WX    TMP DP  RH WIND       PRES   REMARKS
BIG PINEY      FAIR      28  24  85 S7        29.47F WCI  21
PINEDALE       FAIR      32  25  74 SW14G21   29.48S WCI  22
DUBOIS           N/A    N/A N/A N/A MISG        N/A
LANDER         FAIR      43  23  45 W37G51    29.37S
RIVERTON       FAIR      32  22  66 N9        29.41S WCI  24
CASPER         CLOUDY    40  19  43 W20G29    29.47R WCI  30
DOUGLAS        CLOUDY    33  24  69 NE22      29.49R WCI  21

$$
WYZ021-027>030-104>119-181600-
SOUTHERN WYOMING

CITY           SKY/WX    TMP DP  RH WIND       PRES   REMARKS
EVANSTON       CLOUDY    38  15  39 SW25G43   29.56F WCI  27
FORT BRIDGER   FAIR      41  15  34 W37G49    29.55R
ROCK SPRINGS   FAIR      37  12  35 SW15      29.53S WCI  28
DIXON          PTSUNNY   37  17  44 S23G31    29.66F WCI  26
RAWLINS        FAIR      37  16  42 SW35G47   29.52F WCI  24
SARATOGA       FAIR      37  12  35 SW29G38   29.56F WCI  25
LARAMIE        FAIR      35  13  40 W10       29.54F WCI  27
CHEYENNE       FAIR      46  12  25 W15G30    29.53F
TORRINGTON     FAIR      47  17  30 SW10      29.48S
PINE BLUFFS    FAIR      32  16  51 MISG      29.54R

$$




USA.gov is the U.S. government's official web portal to all federal, state and local government web resources and services.